Dewpoint
26 23 25 29 30 31 30 32 24 25 22 23 22 22 23 23 22 21 21 22 24 25 26 28 28 29 30 32 34 36 38 38 40 46 57 57 57 56 56 56 56 56 56 55
25 27 30 25 26 23 28 29 28 24 20 23 21 20 19 20 20 21 22 22 23 24 25 27 28 28 28 29 31 34 34 35 37 38 40 43 51 55 52 49 48 48 46 47
25 29 24 15 24 24 24 24 23 21 23 21 19 19 21 20 20 21 22 22 23 24 25 28 28 27 26 27 28 30 31 33 34 35 35 35 37 39 40 41 40 39 39 39
27 28 14 25 30 27 23 23 23 25 23 21 21 22 23 24 22 21 21 22 23 24 25 28 27 26 26 25 26 26 27 29 32 33 32 32 32 33 34 35 35 35 35 35
26 21 24 27 23 23 25 20 24 22 24 24 23 25 19 23 24 23 23 24 24 25 26 27 28 26 25 24 24 25 26 26 28 31 31 31 31 31 31 32 32 32 33 33
26 20 16 21 21 24 25 14 24 21 20 20 25 17 16 23 24 24 23 24 23 24 24 25 27 27 24 23 23 23 25 26 27 28 29 30 30 30 31 31 30 30 30 31
23 20 21 22 23 28 16 17 24 22 20 19 16 19 22 23 22 23 23 23 22 23 23 24 26 26 25 24 23 23 24 25 26 27 28 28 29 30 30 30 30 30 29 30
21 18 16 23 21 19 25 26 24 22 21 18 18 19 22 22 21 21 20 20 20 19 20 23 25 24 23 25 26 23 22 22 23 25 26 27 27 27 28 28 28 29 28 28
21 18 24 25 25 28 28 25 24 22 22 21 19 19 20 20 20 19 19 18 19 18 18 20 22 24 22 24 26 23 22 21 22 23 25 26 26 26 26 27 27 27 28 27
20 23 24 24 25 25 25 24 25 25 23 22 19 19 18 18 17 17 16 16 17 17 17 17 19 21 23 24 23 24 23 22 21 21 22 24 25 25 25 26 26 26 26 26
21 23 23 24 25 25 25 26 25 24 23 22 21 19 17 13 14 14 13 14 15 16 17 17 18 19 20 23 23 23 23 24 23 22 21 21 22 24 25 26 28 26 26 26
18 22 22 22 26 26 24 23 23 23 23 23 21 17 16 15 14 12 12 13 13 14 14 15 16 17 18 21 23 22 22 22 22 22 21 21 20 20 24 25 27 28 28 27
24 26 24 25 26 26 24 23 23 22 20 17 15 15 14 14 13 13 11 10 11 12 12 12 13 14 16 19 21 20 20 21 21 19 18 17 17 16 15 18 19 22 24 26
25 24 23 24 23 25 25 25 23 18 16 13 11 10 9 9 10 11 11 10 9 10 10 10 11 12 14 17 18 17 17 16 18 18 16 14 12 13 13 13 13 14 17 19
26 27 23 24 24 23 21 18 17 16 15 14 13 12 10 10 10 9 11 10 9 9 8 8 8 10 13 17 17 15 16 15 13 12 13 11 10 10 11 11 11 12 12 13
24 23 23 22 20 19 18 17 16 14 13 11 11 12 13 13 11 10 9 8 6 4 6 3 7 7 11 12 13 12 10 13 11 10 9 8 7 8 9 9 9 9 9 9
24 23 23 20 19 19 18 16 14 13 12 12 13 12 12 11 10 10 8 8 4 1 4 1 -2 1 5 6 9 9 7 10 9 10 9 9 8 8 8 6 6 7 6 3
23 23 22 21 19 16 14 13 10 9 9 9 5 2 -1 0 -0 -1 -2 -3 -2 -1 -3 -5 -2 3 5 7 10 12 10 11 12 11 9 6 9 10 5 4 5 3 0 1
22 21 20 18 17 15 12 10 9 7 3 0 -1 -5 -9 -11 -10 -10 -14 -11 -10 -7 -3 -3 11 6 7 10 10 10 8 7 9 10 10 6 3 7 1 -3 -4 -7 -4 -1
20 19 17 16 14 12 8 2 3 2 -5 -3 -10 -10 -7 -10 -14 -13 -11 -6 -5 -1 0 3 5 6 8 9 6 7 5 2 7 4 5 4 -6 -8 1 4 4 -2 -10 -10
15 14 11 8 2 -1 0 -3 -0 -4 -8 -11 -7 -9 -8 -9 -10 -14 -4 3 1 1 6 3 3 3 4 4 6 -6 -5 -7 -8 -8 -11 -12 -9 0 -5 -7 -4 -5 -5 -4
9 7 2 2 3 -2 -8 -6 -3 -7 -8 -10 -14 -15 -11 -3 -8 -5 -4 4 7 2 7 5 5 -2 -1 -2 4 -8 -2 -3 -4 -7 -10 -13 -14 -16 -16 -18 -15 -12 -11 -10
7 6 5 2 3 2 -3 -5 -8 -6 -8 -9 -8 -6 -2 5 6 3 3 8 8 3 5 4 -1 -4 -6 -11 -10 -11 -12 -11 -10 -11 -13 -18 -15 -11 -16 -15 -16 -18 -18 -16
5 6 2 1 3 6 5 2 4 6 -2 1 2 -1 5 2 5 12 10 5 1 -0 -4 -5 -6 -2 -5 -13 -14 -14 -14 -15 -15 -12 -2 -13 -19 -19 -18 -17 -13 -13 -18 -14
8 7 6 6 9 9 11 12 11 12 13 13 13 14 12 11 8 8 5 6 4 3 1 -2 -3 -2 -4 -5 -11 -10 -8 -10 -10 -17 -13 -14 -14 -16 -18 -19 -15 -4 -9 -15
12 11 12 13 13 14 15 16 12 12 12 8 8 4 3 5 12 12 11 8 7 6 6 6 3 2 -1 3 3 4 1 1 -2 -6 -9 -6 -9 -11 -15 -13 -14 -11 -8 -9
15 15 15 15 16 15 13 14 8 6 5 6 5 2 1 -4 -3 2 3 -2 -1 -4 -4 -4 1 4 5 -1 0 1 -1 0 1 3 1 1 -6 -9 -11 -11 -11 -11 -15 -14
Lifted_Index
1 1 2 2 1 1 0 0 1 1 2 3 5 6 6 7 7 6 6 6 6 5 4 3 2 2 2 1 0 -0 -0 -0 -0 -1 -0 -0 -0 0 1 1 1 1 1 1
1 2 2 2 1 1 1 1 1 1 2 4 6 6 6 6 7 6 6 7 7 7 6 5 4 4 3 2 2 1 1 0 -0 -0 0 0 0 1 1 1 2 2 1 1
1 1 1 1 2 2 2 2 3 3 4 5 6 7 7 7 7 7 8 9 9 9 9 8 8 7 6 5 4 4 3 2 1 0 0 0 0 1 1 1 1 1 1 1
1 1 1 2 3 3 3 3 4 4 5 6 7 8 8 9 9 9 10 11 11 11 11 11 11 10 9 8 7 5 4 3 2 2 1 1 0 1 1 1 1 1 1 1
1 1 1 3 4 4 4 4 4 5 6 7 7 8 8 10 11 11 11 12 12 13 13 12 12 12 11 10 9 7 6 6 5 5 4 3 2 2 2 2 2 1 1 1
1 1 2 3 4 4 4 4 5 6 6 7 7 7 8 10 11 12 12 12 13 13 13 13 13 12 11 10 10 10 10 9 9 9 7 7 6 6 5 5 4 3 2 2
1 1 2 3 4 4 4 5 6 7 7 7 7 7 9 11 12 12 13 13 13 13 13 13 13 13 12 11 12 12 13 12 12 11 11 10 10 9 9 9 8 7 5 4
1 2 3 4 5 5 6 6 7 8 8 8 8 9 10 11 11 12 12 13 13 13 13 14 14 13 12 12 13 14 14 13 13 13 13 12 12 12 11 11 11 10 9 7
2 3 5 6 6 7 8 8 8 8 9 8 8 9 9 10 11 11 12 13 13 13 13 14 14 14 14 14 15 15 14 13 13 13 13 13 13 13 13 13 12 12 12 11
3 4 6 7 8 9 9 9 9 9 9 9 9 9 9 9 10 11 12 13 14 14 14 14 15 15 16 16 16 15 14 14 14 14 14 14 14 14 14 14 14 14 14 14
4 5 6 7 8 9 9 9 10 10 10 10 9 9 9 10 11 12 13 13 14 14 14 15 16 16 17 17 16 16 15 15 15 15 15 15 15 15 16 17 17 16 16 16
5 6 7 7 9 9 9 9 10 10 10 10 10 10 11 11 12 13 14 14 14 15 15 16 16 17 17 18 17 17 16 16 16 16 16 16 16 16 17 18 18 18 18 18
6 7 7 8 9 10 10 10 10 10 10 10 11 12 12 12 13 14 14 15 15 16 16 17 17 17 18 19 19 18 17 17 17 17 17 17 17 16 17 17 18 19 19 19
8 8 8 8 9 10 10 10 10 11 11 11 11 12 13 13 14 14 15 16 16 17 17 18 18 18 19 20 20 19 19 19 19 19 19 19 18 18 18 18 18 18 19 20
8 8 8 8 9 9 10 10 10 10 10 11 12 13 13 14 14 15 16 17 17 17 18 18 18 19 20 21 21 20 20 20 20 20 20 20 20 20 20 19 19 19 20 21
7 8 8 8 9 9 10 10 10 10 11 11 12 13 14 15 15 16 17 18 18 18 18 18 19 20 21 21 21 21 21 21 21 21 21 21 21 21 21 20 20 21 21 22
7 8 8 8 8 9 9 10 10 11 12 12 13 14 15 15 16 17 17 18 18 18 19 19 20 21 22 22 22 21 21 21 21 21 21 21 21 21 21 21 21 21 22 23
8 9 9 9 9 9 10 11 12 12 13 14 15 15 16 16 16 17 18 18 19 19 20 21 21 22 22 22 22 22 22 22 22 22 22 21 21 22 22 22 22 22 23 23
9 9 10 10 10 10 11 12 13 13 14 15 15 16 16 16 17 17 18 18 18 19 20 21 22 22 22 23 23 23 22 22 22 22 22 22 22 22 22 22 22 22 22 23
9 9 10 10 11 12 12 13 14 14 15 16 16 16 16 17 18 18 18 18 19 20 21 22 22 22 23 23 23 23 22 22 22 21 21 21 21 21 21 21 21 21 21 22
9 10 10 11 12 12 13 14 14 15 16 16 16 16 17 18 19 19 19 19 20 21 22 22 23 23 23 23 23 23 22 21 21 21 20 20 20 20 20 20 20 20 20 21
10 10 11 12 12 13 14 15 15 16 16 16 17 17 18 18 19 19 19 20 21 22 23 23 23 23 24 23 23 22 22 21 20 20 19 19 19 18 19 19 19 19 20 20
10 11 12 12 13 13 14 15 16 16 16 17 18 18 18 19 19 19 20 21 22 22 23 23 23 23 23 23 22 21 21 20 19 19 19 19 18 18 18 18 18 19 19 19
11 11 12 13 13 13 14 15 16 17 17 18 18 19 19 19 19 20 20 21 22 22 23 23 23 22 22 21 21 20 19 19 18 18 18 18 18 18 18 18 18 18 18 19
11 12 12 13 13 14 14 15 16 17 17 18 19 19 19 19 20 20 21 21 22 22 22 22 22 21 20 20 19 18 18 17 17 17 17 17 17 17 17 17 17 18 18 18
12 12 13 13 14 14 15 16 16 17 17 18 18 19 19 20 20 20 21 21 22 22 22 21 21 20 19 18 17 17 16 16 16 16 16 16 16 17 17 17 17 17 18 18
12 13 13 13 14 15 16 16 16 16 17 18 18 19 20 20 20 20 21 21 21 21 21 21 20 19 18 17 17 16 16 16 16 15 16 16 16 16 16 17 17 17 18 18